Simultaneous Nadir Overpasses (SNOs) Predictions

Prediction of SNOs between NOAA-20 and NOAA-19 Satellite Orbit:

Table of predicted SNOs for the next 14.0 days since TLE Epoch: 6/15/2018
Index Date (NOAA-20) Time (NOAA-20) Lat,Lon (NOAA-20) SZA (NOAA-20 ) Date (NOAA-19) Time (NOAA-19) Lat,Lon (NOAA-19) SZA (NOAA-19 ) Distance(km) Time Diff (sec)
1 06/18/2018 04:28:39 -80.53,-112.32 119.89 06/18/2018 04:27:24 -80.54,-112.19 119.86 2.48 75
2 06/18/2018 05:19:24 80.53, 55.07 60.10 06/18/2018 05:18:20 80.54, 55.09 60.14 1.33 64
3 06/18/2018 06:10:09 -80.53,-137.72 119.88 06/18/2018 06:09:25 -80.54,-137.64 119.87 1.55 44
4 06/18/2018 07:00:54 80.53, 29.67 60.11 06/18/2018 07:00:21 80.54, 29.64 60.14 1.51 33
5 06/18/2018 07:51:39 -80.53,-163.11 119.88 06/18/2018 07:51:26 -80.54,-163.09 119.87 0.86 13
6 06/18/2018 08:42:24 80.53, 4.28 60.11 06/18/2018 08:42:22 80.54, 4.19 60.13 2.14 2
7 06/18/2018 09:33:09 -80.54, 171.49 119.88 06/18/2018 09:33:27 -80.54, 171.45 119.88 1.09 18
8 06/18/2018 10:23:54 80.53, -21.12 60.11 06/18/2018 10:24:23 80.54, -21.25 60.12 2.94 29
9 06/18/2018 11:14:39 -80.54, 146.09 119.88 06/18/2018 11:15:28 -80.55, 146.00 119.88 1.92 49
10 06/18/2018 12:05:25 80.55, -46.85 60.17 06/18/2018 12:06:24 80.55, -46.70 60.12 2.82 59




NCC Satellite Simultaneous Nadir Overpasses (SNOs) Prediction Service
